Location: *
(51.0333°S, 178.4667°E)
Time: 11:23:51
(UTC+00:00)

SWARM A - Pass Details

Date: 15 November 2019
Orbit: 431 x 436 km, 87.4° (Epoch: 12 December)

Event Time Altitude Azimuth Distance (km) Brightness Sun altitude
Exits shadow 10:23:56 53° 47° (NE) 558 4.4 -17.9°
Maximum altitude 10:24:26 61° 90° (E) 511 4.4 -18.0°
Drops below altitude 10° 10:27:50 10° 171° (S) 1,585 8.0 -18.2°
Sets 10:29:55 0° 174° (S) 2,465 9.2 -18.3°
